EZS891C LFBD-LFSB

Flight info

Callsign EZS891C
Flight time 1h 25m
Altitude 33000
Route OBLOC DCT SECHE DCT NARAK/N0459F340 DCT DITEV DCT MEN DCT NINUN DCT LATAM DCT ETREK/N0470F300 DCT LTP DCT SOPLO DCT OMASI DCT KINNI DCT LAMUR DCT KORED N871 KONOL/N0398F180 Z59 LUMEL
Aircraft A320/M-SDE3FGHIRWY/LB1

Departure

Time 2026-04-27 14:09
Airport Bordeaux–Mérignac Airport (LFBD)

Arrival

Time 2026-04-27 15:35
Airport EuroAirport Basel–Mulhouse–Freiburg (LFSB)
Time Latitude Longitude Altitude Speed Heading
2026-04-27 13:44 44.83029 -0.70548 169 ft 0 kts 136°
2026-04-27 13:59 44.83032 -0.70552 169 ft 3 kts 135°
2026-04-27 13:59 44.83051 -0.70577 169 ft 4 kts 144°
2026-04-27 13:59 44.83072 -0.70596 168 ft 4 kts 155°
2026-04-27 14:00 44.83097 -0.70611 168 ft 4 kts 163°
2026-04-27 14:00 44.83112 -0.70617 168 ft 2 kts 174°
2026-04-27 14:03 44.83108 -0.70620 168 ft 1 kts 206°
2026-04-27 14:03 44.83093 -0.70641 168 ft 6 kts 224°
2026-04-27 14:03 44.83053 -0.70698 169 ft 11 kts 225°
2026-04-27 14:03 44.82985 -0.70779 169 ft 15 kts 211°
2026-04-27 14:04 44.82914 -0.70775 170 ft 8 kts 112°
2026-04-27 14:04 44.82887 -0.70679 170 ft 13 kts 109°
2026-04-27 14:04 44.82854 -0.70525 170 ft 19 kts 107°
2026-04-27 14:04 44.82811 -0.70319 170 ft 25 kts 106°
2026-04-27 14:05 44.82766 -0.70094 170 ft 24 kts 106°
2026-04-27 14:05 44.82695 -0.69947 170 ft 12 kts 182°
2026-04-27 14:05 44.82682 -0.69949 170 ft 0 kts 188°
2026-04-27 14:08 44.82681 -0.69949 197 ft 1 kts 188°
2026-04-27 14:08 44.82652 -0.69961 171 ft 8 kts 195°
2026-04-27 14:08 44.82582 -0.69993 172 ft 14 kts 210°
2026-04-27 14:08 44.82563 -0.70098 172 ft 1 kts 285°
2026-04-27 14:09 44.82598 -0.70256 172 ft 52 kts 287°
2026-04-27 14:09 44.82773 -0.71088 168 ft 122 kts 286°
2026-04-27 14:09 44.83061 -0.72491 232 ft 169 kts 286°
2026-04-27 14:09 44.83295 -0.74103 977 ft 163 kts 268°
2026-04-27 14:10 44.82951 -0.75650 1683 ft 178 kts 233°
2026-04-27 14:10 44.81957 -0.76814 2243 ft 199 kts 203°
2026-04-27 14:10 44.80593 -0.77568 2707 ft 224 kts 201°
2026-04-27 14:10 44.79090 -0.78377 3358 ft 237 kts 201°
2026-04-27 14:11 44.77529 -0.79237 4127 ft 248 kts 202°
2026-04-27 14:11 44.75834 -0.80110 4623 ft 270 kts 194°
2026-04-27 14:11 44.73949 -0.80381 5453 ft 277 kts 174°
2026-04-27 14:11 44.72107 -0.79635 5854 ft 276 kts 149°
2026-04-27 14:12 44.70709 -0.77850 5962 ft 273 kts 124°
2026-04-27 14:12 44.69965 -0.75419 5985 ft 272 kts 101°
2026-04-27 14:12 44.69574 -0.72814 5984 ft 273 kts 106°
2026-04-27 14:12 44.68852 -0.70340 6211 ft 277 kts 120°
2026-04-27 14:13 44.67771 -0.68101 7206 ft 278 kts 127°
2026-04-27 14:13 44.66773 -0.65753 8136 ft 284 kts 114°
2026-04-27 14:13 44.66224 -0.63065 8998 ft 291 kts 98°
2026-04-27 14:13 44.66177 -0.60196 9921 ft 297 kts 87°
2026-04-27 14:14 44.66251 -0.58266 10386 ft 305 kts 87°
2026-04-27 14:14 44.66367 -0.55168 10690 ft 329 kts 87°
2026-04-27 14:14 44.66489 -0.51833 10948 ft 353 kts 87°
2026-04-27 14:14 44.66615 -0.48282 11272 ft 372 kts 88°
2026-04-27 14:15 44.66739 -0.44617 11932 ft 379 kts 88°
2026-04-27 14:15 44.66861 -0.40908 12651 ft 384 kts 88°
2026-04-27 14:15 44.66984 -0.37127 13409 ft 388 kts 88°
2026-04-27 14:15 44.67106 -0.33324 14127 ft 392 kts 88°
2026-04-27 14:16 44.67229 -0.29467 14768 ft 397 kts 88°
2026-04-27 14:16 44.67354 -0.25580 15429 ft 400 kts 88°
2026-04-27 14:16 44.67479 -0.21651 16083 ft 405 kts 88°
2026-04-27 14:16 44.67416 -0.17684 16710 ft 408 kts 97°
2026-04-27 14:17 44.66864 -0.13761 17331 ft 411 kts 108°
2026-04-27 14:17 44.65828 -0.10016 17957 ft 413 kts 118°
2026-04-27 14:17 44.64537 -0.06388 18566 ft 417 kts 118°
2026-04-27 14:17 44.63233 -0.02724 19118 ft 420 kts 118°
2026-04-27 14:18 44.61922 0.00964 19642 ft 424 kts 118°
2026-04-27 14:18 44.60606 0.04681 20187 ft 427 kts 118°
2026-04-27 14:18 44.59283 0.08416 20704 ft 430 kts 118°
2026-04-27 14:18 44.57945 0.12186 21228 ft 433 kts 118°
2026-04-27 14:19 44.56598 0.15976 21712 ft 436 kts 118°
2026-04-27 14:19 44.55241 0.19783 22202 ft 439 kts 118°
2026-04-27 14:19 44.53868 0.23628 22672 ft 442 kts 118°
2026-04-27 14:19 44.52488 0.27489 23108 ft 445 kts 119°
2026-04-27 14:20 44.51099 0.31370 23550 ft 447 kts 119°
2026-04-27 14:20 44.49699 0.35284 23929 ft 450 kts 119°
2026-04-27 14:20 44.48292 0.39206 24296 ft 453 kts 119°
2026-04-27 14:20 44.46873 0.43152 24652 ft 455 kts 119°
2026-04-27 14:21 44.45464 0.47067 24988 ft 457 kts 118°
2026-04-27 14:21 44.44201 0.51240 25327 ft 462 kts 110°
2026-04-27 14:21 44.43417 0.55558 25655 ft 467 kts 101°
2026-04-27 14:21 44.42929 0.60060 25982 ft 469 kts 100°
2026-04-27 14:22 44.42434 0.64593 26301 ft 471 kts 100°
2026-04-27 14:22 44.41926 0.69127 26608 ft 473 kts 101°
2026-04-27 14:22 44.41407 0.73681 26912 ft 475 kts 101°
2026-04-27 14:22 44.40882 0.78258 27197 ft 477 kts 101°
2026-04-27 14:23 44.40357 0.82847 27475 ft 479 kts 101°
2026-04-27 14:23 44.39828 0.87453 27740 ft 481 kts 100°
2026-04-27 14:23 44.39300 0.92082 27986 ft 483 kts 101°
2026-04-27 14:23 44.38770 0.96720 28215 ft 484 kts 101°
2026-04-27 14:24 44.38236 1.01378 28431 ft 486 kts 101°
2026-04-27 14:24 44.37805 1.05134 28660 ft 485 kts 100°
2026-04-27 14:24 44.37438 1.08206 28867 ft 485 kts 101°
2026-04-27 14:24 44.36888 1.12844 29163 ft 484 kts 101°
2026-04-27 14:25 44.36347 1.17486 29475 ft 484 kts 101°
2026-04-27 14:25 44.35812 1.22129 29795 ft 483 kts 101°
2026-04-27 14:25 44.35279 1.26751 30110 ft 483 kts 101°
2026-04-27 14:25 44.34742 1.31383 30379 ft 482 kts 101°
2026-04-27 14:26 44.34200 1.36003 30647 ft 481 kts 101°
2026-04-27 14:26 44.33656 1.40609 30920 ft 481 kts 101°
2026-04-27 14:26 44.33111 1.45214 31188 ft 480 kts 101°
2026-04-27 14:26 44.32565 1.49812 31460 ft 479 kts 101°
2026-04-27 14:27 44.32021 1.54387 31733 ft 479 kts 101°
2026-04-27 14:27 44.31471 1.58974 32014 ft 478 kts 101°
2026-04-27 14:27 44.30916 1.63543 32303 ft 477 kts 101°
2026-04-27 14:27 44.30359 1.68107 32582 ft 477 kts 101°
2026-04-27 14:28 44.29996 1.72703 32853 ft 477 kts 92°
2026-04-27 14:28 44.30103 1.77331 33068 ft 478 kts 84°
2026-04-27 14:28 44.30687 1.81897 33119 ft 478 kts 77°
2026-04-27 14:29 44.32211 1.90855 33116 ft 478 kts 77°
2026-04-27 14:29 44.33731 1.99886 33115 ft 477 kts 77°
2026-04-27 14:30 44.35229 2.08938 33125 ft 477 kts 77°
2026-04-27 14:30 44.36709 2.17980 33132 ft 477 kts 77°
2026-04-27 14:31 44.38197 2.27029 33136 ft 478 kts 77°
2026-04-27 14:31 44.39685 2.36087 33143 ft 478 kts 77°
2026-04-27 14:32 44.41157 2.45140 33144 ft 478 kts 77°
2026-04-27 14:32 44.42607 2.54148 33145 ft 478 kts 77°
2026-04-27 14:33 44.44071 2.63215 33145 ft 478 kts 77°
2026-04-27 14:33 44.45523 2.72293 33148 ft 478 kts 77°
2026-04-27 14:34 44.46957 2.81370 33143 ft 478 kts 77°
2026-04-27 14:34 44.48824 2.90268 33139 ft 476 kts 65°
2026-04-27 14:35 44.52196 2.98197 33134 ft 474 kts 54°
2026-04-27 14:35 44.55889 3.05865 33137 ft 474 kts 54°
2026-04-27 14:36 44.59571 3.13552 33131 ft 474 kts 54°
2026-04-27 14:36 44.63099 3.21372 33133 ft 475 kts 58°
2026-04-27 14:37 44.66299 3.29477 33130 ft 475 kts 60°
2026-04-27 14:37 44.69431 3.37650 33127 ft 475 kts 60°
2026-04-27 14:38 44.72609 3.45708 33129 ft 474 kts 59°
2026-04-27 14:38 44.75848 3.53788 33123 ft 474 kts 59°
2026-04-27 14:39 44.79084 3.61874 33125 ft 474 kts 59°
2026-04-27 14:39 44.82292 3.69973 33132 ft 474 kts 59°
2026-04-27 14:40 44.85485 3.78093 33136 ft 473 kts 59°
2026-04-27 14:40 44.88681 3.86214 33138 ft 473 kts 59°
2026-04-27 14:41 44.91867 3.94333 33135 ft 473 kts 59°
2026-04-27 14:41 44.95041 4.02453 33137 ft 473 kts 59°
2026-04-27 14:42 44.98218 4.10590 33122 ft 472 kts 59°
2026-04-27 14:42 45.01378 4.18719 33121 ft 472 kts 59°
2026-04-27 14:43 45.04526 4.26850 33114 ft 472 kts 59°
2026-04-27 14:43 45.07683 4.35009 33110 ft 472 kts 59°
2026-04-27 14:44 45.10829 4.43165 33119 ft 472 kts 59°
2026-04-27 14:44 45.13964 4.51318 33121 ft 472 kts 59°
2026-04-27 14:45 45.17098 4.59489 33108 ft 471 kts 59°
2026-04-27 14:45 45.20219 4.67654 33104 ft 471 kts 59°
2026-04-27 14:46 45.23315 4.75783 33109 ft 471 kts 60°
2026-04-27 14:46 45.26424 4.83977 33103 ft 471 kts 59°
2026-04-27 14:47 45.29530 4.92181 33103 ft 471 kts 60°
2026-04-27 14:47 45.32629 5.00383 33109 ft 471 kts 60°
2026-04-27 14:48 45.35722 5.08600 33118 ft 471 kts 60°
2026-04-27 14:48 45.40358 5.20935 33120 ft 471 kts 60°
2026-04-27 14:49 45.43436 5.29180 33122 ft 471 kts 60°
2026-04-27 14:49 45.46495 5.37430 33122 ft 471 kts 60°
2026-04-27 14:50 45.50092 5.45155 33124 ft 466 kts 45°
2026-04-27 14:50 45.54814 5.51430 33112 ft 463 kts 39°
2026-04-27 14:51 45.59623 5.57551 33094 ft 464 kts 39°
2026-04-27 14:51 45.63620 5.62677 33088 ft 464 kts 39°
2026-04-27 14:52 45.69203 5.69833 33087 ft 464 kts 39°
2026-04-27 14:52 45.74007 5.76014 33084 ft 464 kts 39°
2026-04-27 14:53 45.78812 5.82193 33090 ft 464 kts 39°
2026-04-27 14:53 45.83616 5.88370 33107 ft 464 kts 39°
2026-04-27 14:54 45.88422 5.94572 33108 ft 465 kts 39°
2026-04-27 14:54 45.93234 6.00794 33110 ft 465 kts 39°
2026-04-27 14:55 45.98040 6.07023 33111 ft 465 kts 39°
2026-04-27 14:55 46.02833 6.13259 33109 ft 465 kts 39°
2026-04-27 14:56 46.07619 6.19530 33105 ft 466 kts 41°
2026-04-27 14:56 46.11660 6.26825 33099 ft 471 kts 52°
2026-04-27 14:57 46.15427 6.34549 33104 ft 471 kts 52°
2026-04-27 14:57 46.19200 6.42282 33099 ft 471 kts 52°
2026-04-27 14:58 46.22967 6.50036 33103 ft 471 kts 52°
2026-04-27 14:58 46.26721 6.57790 33115 ft 471 kts 52°
2026-04-27 14:59 46.30475 6.65554 33114 ft 471 kts 52°
2026-04-27 14:59 46.34229 6.73337 33124 ft 471 kts 52°
2026-04-27 15:00 46.37973 6.81121 33122 ft 471 kts 52°
2026-04-27 15:00 46.41709 6.88916 33118 ft 471 kts 52°
2026-04-27 15:01 46.45443 6.96739 33119 ft 472 kts 52°
2026-04-27 15:01 46.49166 7.04563 33112 ft 471 kts 52°
2026-04-27 15:02 46.52889 7.12395 33120 ft 471 kts 52°
2026-04-27 15:02 46.56818 7.19965 33113 ft 466 kts 42°
2026-04-27 15:03 46.60964 7.24866 33117 ft 459 kts 28°
2026-04-27 15:03 46.67577 7.29581 33110 ft 455 kts 21°
2026-04-27 15:04 46.72354 7.32798 33105 ft 455 kts 21°
2026-04-27 15:04 46.78152 7.36721 33099 ft 456 kts 20°
2026-04-27 15:05 46.83804 7.41077 33099 ft 462 kts 31°
2026-04-27 15:05 46.88450 7.47653 33099 ft 471 kts 48°
2026-04-27 15:06 46.92595 7.55051 33100 ft 467 kts 39°
2026-04-27 15:06 46.95180 7.57823 33099 ft 457 kts 24°
2026-04-27 15:06 46.98101 7.59514 33101 ft 448 kts
2026-04-27 15:07 47.01160 7.60087 33097 ft 440 kts 355°
2026-04-27 15:07 47.04164 7.59562 33092 ft 433 kts 342°
2026-04-27 15:07 47.06959 7.58023 33091 ft 427 kts 329°
2026-04-27 15:07 47.09392 7.55586 33091 ft 422 kts 317°
2026-04-27 15:08 47.13797 7.49960 33085 ft 423 kts 316°
2026-04-27 15:08 47.18273 7.44252 33091 ft 424 kts 317°
2026-04-27 15:09 47.21688 7.39912 33087 ft 424 kts 317°
2026-04-27 15:09 47.26142 7.34214 33098 ft 424 kts 316°
2026-04-27 15:10 47.30551 7.28531 33111 ft 424 kts 316°
2026-04-27 15:10 47.34990 7.22805 33113 ft 424 kts 316°
2026-04-27 15:11 47.39320 7.16932 33118 ft 422 kts 309°
2026-04-27 15:11 47.42471 7.09711 33050 ft 417 kts 294°
2026-04-27 15:12 47.43677 7.05795 31949 ft 421 kts 293°
2026-04-27 15:12 47.44889 7.01810 30547 ft 431 kts 293°
2026-04-27 15:12 47.46228 6.97808 29382 ft 436 kts 301°
2026-04-27 15:12 47.48132 6.94417 29115 ft 423 kts 315°
2026-04-27 15:13 47.50457 6.91877 28972 ft 410 kts 328°
2026-04-27 15:13 47.53064 6.90301 28833 ft 401 kts 341°
2026-04-27 15:13 47.55764 6.89509 28691 ft 393 kts 353°
2026-04-27 15:13 47.58451 6.89970 28556 ft 390 kts 14°
2026-04-27 15:14 47.60825 6.91857 28424 ft 388 kts 37°
2026-04-27 15:14 47.62556 6.94862 28286 ft 384 kts 59°
2026-04-27 15:14 47.63441 6.98541 28127 ft 376 kts 78°
2026-04-27 15:14 47.63860 7.02337 27786 ft 372 kts 80°
2026-04-27 15:15 47.64254 7.06113 27403 ft 369 kts 80°
2026-04-27 15:15 47.64639 7.09867 27015 ft 366 kts 80°
2026-04-27 15:15 47.65021 7.13583 26617 ft 364 kts 80°
2026-04-27 15:15 47.65398 7.17282 26232 ft 362 kts 80°
2026-04-27 15:16 47.65841 7.20931 25860 ft 358 kts 70°
2026-04-27 15:16 47.67022 7.24077 25493 ft 344 kts 41°
2026-04-27 15:16 47.68954 7.25983 25104 ft 329 kts 12°
2026-04-27 15:16 47.71150 7.26278 24692 ft 313 kts 343°
2026-04-27 15:17 47.73053 7.24968 24278 ft 299 kts 314°
2026-04-27 15:17 47.74169 7.22471 23859 ft 291 kts 284°
2026-04-27 15:17 47.74203 7.19517 23413 ft 290 kts 254°
2026-04-27 15:17 47.73149 7.16975 22931 ft 296 kts 223°
2026-04-27 15:18 47.71364 7.15461 22457 ft 304 kts 207°
2026-04-27 15:18 47.69506 7.13997 22005 ft 301 kts 217°
2026-04-27 15:18 47.67817 7.12188 21624 ft 299 kts 221°
2026-04-27 15:18 47.66217 7.10236 21274 ft 296 kts 224°
2026-04-27 15:19 47.64650 7.08254 20914 ft 295 kts 224°
2026-04-27 15:19 47.63088 7.06297 20629 ft 292 kts 223°
2026-04-27 15:19 47.61529 7.04391 20494 ft 289 kts 223°
2026-04-27 15:19 47.59967 7.02517 20371 ft 289 kts 222°
2026-04-27 15:20 47.58433 7.00611 20236 ft 286 kts 231°
2026-04-27 15:20 47.57514 6.98104 20104 ft 277 kts 260°
2026-04-27 15:20 47.57550 6.95290 19972 ft 275 kts 287°
2026-04-27 15:20 47.58468 6.92820 19838 ft 278 kts 312°
2026-04-27 15:21 47.60086 6.91239 19701 ft 285 kts 339°
2026-04-27 15:21 47.62076 6.91008 19558 ft 294 kts
2026-04-27 15:21 47.63935 6.92308 19414 ft 303 kts 40°
2026-04-27 15:21 47.65094 6.94858 19268 ft 301 kts 72°
2026-04-27 15:22 47.65255 6.97888 19130 ft 293 kts 96°
2026-04-27 15:22 47.65070 7.00888 18981 ft 291 kts 95°
2026-04-27 15:22 47.64906 7.03874 18837 ft 289 kts 94°
2026-04-27 15:22 47.64753 7.06840 18695 ft 288 kts 94°
2026-04-27 15:23 47.64571 7.09804 18480 ft 290 kts 102°
2026-04-27 15:23 47.63761 7.12507 18036 ft 289 kts 132°
2026-04-27 15:23 47.62223 7.14337 17641 ft 284 kts 160°
2026-04-27 15:23 47.60340 7.15166 17252 ft 283 kts 169°
2026-04-27 15:24 47.58421 7.15849 16863 ft 286 kts 169°
2026-04-27 15:24 47.56474 7.16541 16456 ft 289 kts 169°
2026-04-27 15:24 47.54496 7.17245 16046 ft 294 kts 169°
2026-04-27 15:24 47.52495 7.17960 15648 ft 298 kts 169°
2026-04-27 15:25 47.50464 7.18687 15217 ft 302 kts 168°
2026-04-27 15:25 47.48412 7.19423 14791 ft 305 kts 168°
2026-04-27 15:25 47.46348 7.20179 14372 ft 309 kts 165°
2026-04-27 15:25 47.44448 7.21688 13921 ft 316 kts 137°
2026-04-27 15:26 47.43271 7.24424 13425 ft 320 kts 109°
2026-04-27 15:26 47.42616 7.27575 12981 ft 321 kts 108°
2026-04-27 15:26 47.41799 7.30662 12502 ft 323 kts 114°
2026-04-27 15:26 47.40836 7.33670 12031 ft 325 kts 117°
2026-04-27 15:27 47.39774 7.36608 11562 ft 326 kts 120°
2026-04-27 15:27 47.38636 7.39521 11100 ft 326 kts 121°
2026-04-27 15:27 47.37478 7.42373 10618 ft 320 kts 122°
2026-04-27 15:27 47.36349 7.45122 10169 ft 309 kts 122°
2026-04-27 15:28 47.35252 7.47793 9700 ft 300 kts 122°
2026-04-27 15:28 47.34188 7.50389 9254 ft 292 kts 122°
2026-04-27 15:28 47.33158 7.52916 8826 ft 283 kts 121°
2026-04-27 15:28 47.32149 7.55403 8416 ft 282 kts 121°
2026-04-27 15:29 47.31140 7.57896 7996 ft 283 kts 120°
2026-04-27 15:29 47.30494 7.60588 7632 ft 280 kts 92°
2026-04-27 15:29 47.30920 7.63332 7273 ft 277 kts 58°
2026-04-27 15:29 47.32257 7.65242 6947 ft 271 kts 31°
2026-04-27 15:30 47.33958 7.66409 6635 ft 268 kts 20°
2026-04-27 15:30 47.35690 7.67242 6532 ft 255 kts 17°
2026-04-27 15:30 47.37404 7.67582 6444 ft 246 kts 353°
2026-04-27 15:30 47.39020 7.66858 6171 ft 245 kts 334°
2026-04-27 15:31 47.40541 7.65711 5779 ft 246 kts 335°
2026-04-27 15:31 47.42093 7.64612 5332 ft 250 kts 336°
2026-04-27 15:31 47.43685 7.63518 4847 ft 254 kts 336°
2026-04-27 15:31 47.45290 7.62414 4450 ft 256 kts 335°
2026-04-27 15:32 47.46893 7.61306 4033 ft 249 kts 336°
2026-04-27 15:32 47.48436 7.60238 3659 ft 241 kts 336°
2026-04-27 15:32 47.49935 7.59200 3303 ft 235 kts 336°
2026-04-27 15:32 47.51372 7.58204 2953 ft 220 kts 336°
2026-04-27 15:33 47.52709 7.57278 2633 ft 204 kts 337°
2026-04-27 15:33 47.53944 7.56421 2357 ft 187 kts 336°
2026-04-27 15:33 47.55079 7.55635 2050 ft 175 kts 336°
2026-04-27 15:33 47.56133 7.54903 1797 ft 158 kts 336°
2026-04-27 15:34 47.57090 7.54239 1538 ft 146 kts 337°
2026-04-27 15:34 47.57976 7.53617 1283 ft 138 kts 337°
2026-04-27 15:34 47.58828 7.53013 1036 ft 133 kts 338°
2026-04-27 15:34 47.59639 7.52454 923 ft 121 kts 336°
2026-04-27 15:35 47.60303 7.52002 887 ft 82 kts 335°
2026-04-27 15:35 47.60664 7.51755 881 ft 35 kts 334°
2026-04-27 15:35 47.60863 7.51616 880 ft 30 kts 335°
2026-04-27 15:35 47.61024 7.51537 875 ft 14 kts 27°
2026-04-27 15:36 47.61072 7.51644 874 ft 12 kts 60°
2026-04-27 15:36 47.61093 7.51739 874 ft 8 kts 119°
2026-04-27 15:36 47.61054 7.51776 875 ft 5 kts 156°
2026-04-27 15:36 47.61027 7.51795 876 ft 3 kts 155°
2026-04-27 15:37 47.60995 7.51816 877 ft 9 kts 155°
2026-04-27 15:37 47.60913 7.51872 879 ft 17 kts 155°
2026-04-27 15:37 47.60783 7.51970 881 ft 25 kts 152°
2026-04-27 15:37 47.60603 7.52110 882 ft 34 kts 153°
2026-04-27 15:38 47.60429 7.52222 883 ft 24 kts 158°
2026-04-27 15:38 47.60283 7.52320 888 ft 22 kts 153°
2026-04-27 15:38 47.60184 7.52412 890 ft 7 kts 83°
2026-04-27 15:38 47.60175 7.52484 890 ft 11 kts 129°
2026-04-27 15:39 47.60085 7.52550 890 ft 15 kts 154°
2026-04-27 15:39 47.59991 7.52617 890 ft 15 kts 154°
2026-04-27 15:39 47.59901 7.52680 890 ft 14 kts 154°
2026-04-27 15:39 47.59812 7.52739 890 ft 14 kts 155°
2026-04-27 15:40 47.59772 7.52767 890 ft 0 kts 155°
2026-04-27 15:40 47.59769 7.52770 890 ft 3 kts 155°
2026-04-27 15:40 47.59713 7.52808 890 ft 14 kts 154°
2026-04-27 15:40 47.59649 7.52879 890 ft 2 kts 95°
2026-04-27 15:41 47.59660 7.52911 890 ft 8 kts 65°
2026-04-27 15:41 47.59704 7.53010 890 ft 15 kts 28°
2026-04-27 15:41 47.59764 7.53089 890 ft 6 kts 62°
2026-04-27 15:41 47.59775 7.53125 890 ft 5 kts 65°
2026-04-27 15:42 47.59787 7.53162 890 ft 3 kts 65°
2026-04-27 15:42 47.59791 7.53175 890 ft 0 kts 65°